Location: Elstree
(51.6403°N, 0.2969°W)
Time: 00:12:29
(UTC+00:00)

Tiangong - Pass Details

Date: 02 December 2022
Orbit: 382 x 386 km, 41.5° (Epoch: 06 February)

Event Time Altitude Azimuth Distance (km) Brightness Sun altitude
Rises 18:19:42 0° 226° (SW) 2,247 2.6 -21.5°
Reaches altitude 10° 18:22:49 10° 192° (SSW) 1,397 0.9 -22.0°
Enters shadow 18:23:15 11° 184° (S) 1,340 0.7 -22.1°
